Погода Жосалы

Погода Жосалы : погода сейчас, прогноз погоды и архив. Всё, что Вы хотите узнать о погоде Жосалы!

Хотите узнать прогноз погоды Жосалы? Тогда Вам сюда: Погода Жосалы

Поиск расширенной информации на нашем сайте:

Другие новости

Новости СМИ2

Главная страница сайта

Новости сайта

03.07.2017

Напоминаем, что на нашем специализированном сайте Метеоцентр.Азия вы можете получить высокодетализированные автоматические прогнозы погоды по пунктам России, СНГ и мира в авиационном формате (включающие направление и скорость ветра, видимость, явления погоды, количество и форму облачности, нижнюю и верхнюю границу облачности).


Погода Жосалы - сегодня

Время (UTC), дата Ветер
(°,м/с) 
Видим.   Явления Облачность Т
(°С)
Тd
(°С)
f(%) Тe
(°С)
Pmin
(гПа)
dP
(гПа)
Po
(мм)
O2
(г/м3)
Тmin Tmax R s Состояние
почвы
06 20.09.17 070 (В) 12-15{15}  20000 м  пыльный позёмок  ясно 
+23.3 +0.4 22 +23  1024.6  0.1  759  282  +14.2         
09 20.09.17 050 (СВ) 12-15{15}  20000 м  пыльный позёмок  ясно 
+27.4 -0.5 16 +27  1022.3  -2  758  278           
12 20.09.17 020 (С) 15-20{20}  4000 м  пыльная буря  ясно 
+28.8 -1.9 13 +29  1021  -1.3  757  276    +3.3       
15 20.09.17 020 (С) 4{20}  н/о    ясно 
+22.2 -1.2 21 +22  1021.2  757  282    +29       
18 20.09.17 050 (СВ) н/о    ясно 
+20.4 -0.5 25 +20  1020.5  -0.8  756  284    +29       
21 20.09.17 050 (СВ) н/о    ясно 
+16.9 +0.2 32 +17  1020.1  -0.6  756  287           
00 21.09.17 050 (СВ) н/о    ясно 
+15 +0.2 36 +14  1019.7  -0.4  756  289           
03 21.09.17 050 (СВ) 20000 м    ясно 
+15.5 -0.5 33 +15  1020.1  0.4  751  286           
06 21.09.17 070 (В) 20000 м    ясно 
+24.3 +0.2 20 +24  1019.3  -0.4  756  280  +14.3         
09 21.09.17 070 (В) 20000 м    ясно 
+28.4 +0.6 16 +28  1017.4  -1.7  754  275           
12 21.09.17 050 (СВ) 20000 м    ясно 
+29.5 +1.3 16 +30  1016.7  -0.7  754  274           
15 21.09.17 050 (СВ) н/о    ясно 
+22.5 +1.1 24 +23  1016.9  -0.1  754  280    +29.9       
18 21.09.17 020 (С) н/о    ясно 
+20.2 +2.1 30 +20  1016.6  -0.4  753  282    +29.9       
21 21.09.17 050 (СВ) н/о    ясно 
+17 +0.9 34 +17  1016.3  -0.4  753  286           
00 22.09.17 070 (В) н/о    ясно 
+16.7 +0.2 33 +16  1016.2  -0.1  753  286           
03 22.09.17 070 (В) 20000 м    ясно 
+19.4 +2.3 32 +20  1016.2  0.1  753  283           
06 22.09.17 070 (В) 20000 м    ясно 
+28.2 +4.6 22 +28  1015.8  753  274  +16.5         
09 22.09.17 050 (СВ) 20000 м    ясно 
+30.1 +2.3 17 +30  1014.4  -1.4  752  273           
12 22.09.17 360 (С) 20000 м    ясно 
+30.4 +1.3 15 +30  1013.8  -0.5  752  272           
15 22.09.17 тихо ()   н/о    ясно 
+24.8 +5 28 +25  1014.2  0.2  752  277    +31.4       
18 22.09.17 050 (СВ) н/о    ясно 
+22 +2.7 28 +22  1015.3  0.9  752  280    +31.4       
21 22.09.17 050 (СВ) н/о    ясно 
+18.1 +3.2 37 +18  1016.2  0.8  753  284           
00 23.09.17 050 (СВ) н/о    ясно 
+14.4 +2.9 46 +13  1019.5  3.1  755  289           
03 23.09.17 050 (СВ) 20000 м    3/0 верхняя 
[Ci sp]
+12.4 +1.9 49 +11  1021.6  1.9  751  289           
06 23.09.17 020 (С) 12-15{15}  20000 м  пыльный позёмок  6/0 средняя 
[Ac trans]
+16 +1.5 37 +15  1023.3  1.9  758  288  +11.8         
Время (UTC), дата Ветер
(°,м/с) 
Видим.   Явления Облачность Т
(°С)
Тd
(°С)
f(%) Тe
(°С)
Pmin
(гПа)
dP
(гПа)
Po
(мм)
O2
(г/м3)
Тmin Tmax R s Состояние
почвы

Для получения пояснительной информации подведите курсор к названию столбца.

ПОГОДА Жосалы - архив

Всё, что Вы хотите узнать о погоде Жосалы - удобно и подробно!

Выберите нужную дату (начиная с 1 января 2015* года) и нажмите кнопку "Найти".
Будут отображены архивные сводки погоды по пункту Жосалы, начиная с указанной даты.


Отображать данные в формате CSV (для использования в таблицах Excel)


Внимание! Наш архив погоды предназначен исключительно для личного некоммерческого использования в познавательных целях. Если Вам необходимы официальные справки о состоянии погоды (для производственных, юридических, коммерческих и т.п. целей), обращайтесь в органы Росгидромета.

*Примечание: данная дата относится к архиву по метеостанциям СССР (Россия, СНГ, Балтия).
Архив по метеостанциям Зарубежной Европы и Азии (кроме Китая) хранится 10 дней, по другим регионам земного шара (Китай, Африка, Америка, Австралия, Океания) - 1 день.

Жосалы - район местоположения метеостанции


Название, широта, долгота, высота метеостанции:
Жосалы (Джусалы) 45.5°ш. 64.1°д. 103 м над ур. моря [Казахстан]

Дополнительная информация

В oтличие oт бoльшинства пoгoдных сайтoв мы публикуем пoдрoбную метеoинфoрмацию в детальнoм прoфессиoнальнoм фoрмате.

Характеристики температуры и влажнoсти вoздуха измеряются на высoте 2 м в тени вдали oт зданий и деревьев.
Скoрoсть ветра измеряется на высoте 10 м (на урoвне рoста челoвека скoрoсть ветра ниже в 1.5-2 раза). Если метеoстанция нахoдится в гoрoде или в лесу, тo скoрoсть ветра занижена на 2-4 м/с пo сравнению с oткрытым местoм. Скoрoсть ветра над акватoриями крупных рек и oзёр, а также на вершинах хoлмoв на 2-5 м/с выше, чем в oбычных услoвиях.
Атмoсфернoе давление в разных тoчках местнoсти мoжет значительнo oтличаться oт давления на метеoстанции, в зависимoсти oт услoвий рельефа (при пoдъёме на 10 м давление пoнижается примернo на 1 мм рт.ст.).